Flag for U.S.A. Weather past 2 weeks in Salina, Kansas, U.S.A.

Now
38 °F

Light rain. Mostly cloudy.


Feels Like: 33 °F
Forecast: 36 / 43 °F
Wind: 6 mph from South

Location: Salina Municipal Airport

Current Time: Jan 30, 2015 at 10:47:34 PM

Latest Report: Jan 30, 2015 at 9:53 PM


Visibility: 10 mi

Pressure: 30.36 "Hg

Humidity: 83%

Dew point: 33 °F

Location of SalinaLocation

Historic Weather in Salina — Graph

°F

Salina temperature yesterday

Maximum temperature yesterday: 50 °F (at 1:53 AM)
Minimum temperature yesterday: 27 °F (at 10:53 PM)
Average temperature yesterday: 42 °F

Past Weeks' High & Low Weather Summary

 TemperatureHumidityPressure
High75 °F (Jan 27, 3:53 PM)92% (Jan 26, 3:53 AM)30.58 "Hg (Jan 26, 3:53 AM)
Low20 °F (Jan 30, 6:53 AM)22% (Jan 23, 3:53 PM)29.75 "Hg (Jan 17, 1:53 AM)
Average42 °F58%30.12 "Hg
* Reported Jan 15 9:53 PM — Jan 30 9:53 PM, Salina, Weather by CustomWeather, © 2014

Note: Actual official high and low records may vary slightly from our data, if they occured in-between our weather recording intervals... More about our weather records

Advertising

Salina weather history for previous 24 hours

 ConditionsComfort  
Time TempWeatherWind HumidityBarometerVisibility
9:53 PM
Jan 30
38 °FLight rain. Mostly cloudy.6 mph83%30.36 "Hg10 mi
8:53 PM38 °FLight rain. Mostly cloudy.5 mph83%30.36 "Hg10 mi
7:53 PM39 °FLight rain. Overcast.6 mph76%30.38 "Hg8 mi
6:53 PM42 °FOvercast.12 mph53%30.38 "Hg10 mi
5:53 PM42 °FOvercast.9 mph53%30.39 "Hg10 mi
4:53 PM43 °FOvercast.9 mph51%30.41 "Hg10 mi
3:53 PM44 °FPartly sunny.12 mph49%30.42 "Hg10 mi
2:53 PM45 °FSunny.12 mph48%30.42 "Hg10 mi
1:53 PM45 °FPartly sunny.12 mph48%30.44 "Hg10 mi
12:53 PM44 °FSunny.13 mph51%30.47 "Hg10 mi
11:53 AM42 °FSunny.12 mph55%30.52 "Hg10 mi
10:53 AM37 °FSunny.9 mph70%30.56 "Hg10 mi
9:53 AM31 °FSunny.8 mph82%30.57 "Hg10 mi
8:53 AM25 °FSunny.5 mph81%30.56 "Hg10 mi
7:53 AM21 °FSunny.3 mph85%30.58 "Hg10 mi
6:53 AM20 °FClear.No wind85%30.57 "Hg10 mi
5:53 AM22 °FClear.No wind82%30.56 "Hg10 mi
4:53 AM23 °FClear.No wind78%30.56 "Hg10 mi
3:53 AM24 °FClear.No wind81%30.55 "Hg10 mi
2:53 AM26 °FClear.No wind74%30.56 "Hg10 mi
1:53 AM25 °FClear.No wind78%30.56 "Hg10 mi
12:53 AM26 °FClear.No wind77%30.57 "Hg10 mi
11:53 PM
Jan 29
27 °FClear.No wind75%30.57 "Hg10 mi
10:53 PM27 °FClear.No wind75%30.56 "Hg10 mi
Weather by CustomWeather, © 2014

See weather overviewHow to use our weather pages